Tracking 19149 objects as of 22-Apr-2018
HD Live streaming from Space Station
objects crossing your sky now

FENGYUN 1C DEB

Track FENGYUN 1C DEB now!
10-day predictions


NORAD ID: 29915
Int'l Code: 1999-025HM
Perigee: 573.4 km
Apogee: 662.2 km
Inclination: 99.0 °
Period: 96.9 minutes
Semi major axis: 6988 km
RCS: 0.025 m2 (small)
Launch date: May 10, 1999
Source: People's Republic of China (PRC)
Launch site: Taiyaun Space Center, China (TSC)

Note: This is SATELLITE DEBRIS
aabbcc
Your satellite tracking list
Your tracking list is empty




NASA's NSSDC Master Catalog

Two Line Element Set (TLE):
1 29915U 99025HM  18111.55792116 +.00005010 +00000-0 +56141-3 0  9995
2 29915 099.0468 148.4559 0063530 138.9220 221.6801 14.85930970598662
Source of the keplerian elements: AFSPC